Buffalo, NY

12:29 AM EST on December 16, 2019 (GMT -0500)
Buffalo Niagara International

Weather History for KBUF - November, 2019

Change the Weather History Date:

Sunday, November 17, 2019

  Actual Average Record
Temperature  
Mean Temperature 31 °F 40 °F  
Max Temperature 43 °F 47 °F 69 °F (1954)
Min Temperature 19 °F 34 °F 13 °F (1959)
Degree Days  
Heating Degree Days 34 25  
Month to date heating degree days 533 374  
Since 1 July heating degree days 967 979  
Cooling Degree Days 0 0  
Month to date cooling degree days 0 0  
Year to date cooling degree days 604 544  
Moisture  
Dew Point 17 °F    
Average Humidity 57    
Maximum Humidity 75    
Minimum Humidity 39    
Precipitation  
Precipitation 0.00 in 0.14 in 2.11 in (1890)
Month to date precipitation 1.67 2.26  
Year to date precipitation 42.15 34.84  
Snow  
Snow 0.00 in 0.30 in 14.00 in (1920)
Month to date snowfall 12.6 3.1  
Since 1 July snowfall 12.6 4.0  
Since 1 September snowfall 12.6 4.0  
Snow Depth 4.00 in    
Sea Level Pressure  
Sea Level Pressure 30.18 in    
Wind  
Wind Speed 7 mph (SE)    
Max Wind Speed 13 mph    
Max Gust Speed 16 mph    
Visibility 10 miles    
Events      
T = Trace of Precipitation, MM = Missing Value Source: NWS Daily Summary

Daily Weather History Graph

Daily Weather History Graph

Search for Another Location

Airport or City:

Astronomy

Nov. 17, 2019 Rise Set
Actual Time 7:09 AM EST 4:49 PM EST
Civil Twilight 6:38 AM EST 5:20 PM EST
Nautical Twilight 6:04 AM EST 5:54 PM EST
Astronomical Twilight 5:30 AM EST 6:28 PM EST
Moon 9:22 PM EST (11/17) 11:55 AM EST (11/17)
Length of Visible Light 10h 41m
Length of Day
9h 40m
Waning Gibbous, 73% of the Moon is Illuminated
Nov 17
Waning Gibbous
Nov 19
Last Quarter
Nov 26
New
Dec 4
First Quarter
Dec 12
Full

Hourly Weather History & Observations

Time (EST) Temp. Windchill Dew Point Humidity Pressure Visibility Wind Dir Wind Speed Gust Speed Precip Events Conditions
1:54 AM 21.0 °F 13.4 °F 10.9 °F 65% 30.38 in 10.0 mi East 5.8 mph - N/A   Mostly Cloudy
2:54 AM 21.0 °F 16.2 °F 10.0 °F 63% 30.36 in 10.0 mi East 3.5 mph - N/A   Partly Cloudy
3:54 AM 19.9 °F - 10.0 °F 65% 30.35 in 10.0 mi Calm Calm - N/A   Partly Cloudy
4:54 AM 23.0 °F 15.8 °F 9.0 °F 55% 30.34 in 10.0 mi ESE 5.8 mph - N/A   Partly Cloudy
5:54 AM 23.0 °F 14.7 °F 7.0 °F 50% 30.32 in 10.0 mi SE 6.9 mph - N/A   Partly Cloudy
6:54 AM 24.1 °F 14.4 °F 6.1 °F 46% 30.31 in 10.0 mi SE 9.2 mph - N/A   Partly Cloudy
7:54 AM 25.0 °F 15.5 °F 6.1 °F 45% 30.31 in 10.0 mi SE 9.2 mph - N/A   Partly Cloudy
8:54 AM 28.0 °F 20.8 °F 7.0 °F 41% 30.28 in 10.0 mi ESE 6.9 mph - N/A   Partly Cloudy
9:54 AM 32.0 °F 25.6 °F 10.9 °F 42% 30.26 in 10.0 mi SE 6.9 mph - N/A   Partly Cloudy
10:54 AM 35.1 °F 27.9 °F 15.1 °F 44% 30.22 in 10.0 mi SE 9.2 mph - N/A   Partly Cloudy
11:54 AM 37.9 °F 30.9 °F 19.9 °F 48% 30.17 in 10.0 mi SSE 10.4 mph - N/A   Partly Cloudy
12:54 PM 41.0 °F 35.8 °F 21.0 °F 45% 30.14 in 10.0 mi SE 8.1 mph - N/A   Scattered Clouds
1:54 PM 42.1 °F 37.7 °F 23.0 °F 47% 30.12 in 10.0 mi Variable 6.9 mph - N/A   Mostly Cloudy
2:54 PM 41.0 °F 37.1 °F 23.0 °F 49% 30.10 in 10.0 mi South 5.8 mph - N/A   Scattered Clouds
3:54 PM 42.1 °F 37.1 °F 23.0 °F 47% 30.08 in 10.0 mi SE 8.1 mph - N/A   Mostly Cloudy
4:54 PM 41.0 °F 35.8 °F 24.1 °F 51% 30.07 in 10.0 mi SE 8.1 mph - N/A   Mostly Cloudy
5:54 PM 39.0 °F 32.8 °F 24.1 °F 55% 30.08 in 10.0 mi SE 9.2 mph - N/A   Mostly Cloudy
6:54 PM 37.9 °F 30.5 °F 26.1 °F 62% 30.06 in 10.0 mi SE 11.5 mph - N/A   Scattered Clouds
7:54 PM 37.0 °F 31.6 °F 26.1 °F 65% 30.04 in 10.0 mi SE 6.9 mph - N/A   Scattered Clouds
8:54 PM 35.1 °F 29.3 °F 25.0 °F 67% 30.03 in 10.0 mi ESE 6.9 mph - N/A   Scattered Clouds
9:54 PM 34.0 °F 27.2 °F 25.0 °F 70% 30.00 in 10.0 mi ESE 8.1 mph - N/A   Scattered Clouds
10:54 PM 33.1 °F 27.7 °F 26.1 °F 75% 29.97 in 10.0 mi ESE 5.8 mph - N/A   Partly Cloudy
11:54 PM 32.0 °F 26.4 °F 26.1 °F 79% 29.95 in 10.0 mi East 5.8 mph - N/A   Partly Cloudy